Regional Weather Roundup
Issued by NWS

Home | Current Version | Previous Version | Text Only | Print | Product List | Glossary On
Versions: 1 2 3 4 5 6 7 8 9 10 11 12 13 14 15 16 17 18 19 20 21 22 23 24 25 26 27 28 29 30 31 32 33 34 35 36 37 38 39 40 41 42 43 44 45 46 47 48 49 50
000
ASUS45 KBOU 261607
RWRCO

WEATHER ROUNDUP FOR COLORADO
NATIONAL WEATHER SERVICE DENVER/BOULDER CO
1000 AM MDT SAT JUL 26 2014

NOTE: "FAIR" INDICATES FEW OR NO CLOUDS BELOW 12000 FEET WITH NO
SIGNIFICANT WEATHER AND/OR OBSTRUCTIONS TO VISIBILITY.

COZ001>005-013-030-031-261700-
...NORTHWEST COLORADO...

CITY           SKY/WX    TMP DP  RH WIND       PRES   REMARKS
CRAIG          MOSUNNY   68  54  60 VRB5      30.28S
HAYDEN         MOSUNNY   70  46  43 E7        30.30F
MEEKER         SUNNY     72  49  44 CALM      30.29S
MOUNT WERNER   NOT AVBL
STEAMBOAT SPGS MOSUNNY   65  51  58 CALM      30.33S
WALDEN         PTSUNNY   61  46  59 CALM      30.41S
$$

COZ006>008-011-261700-
...WEST CENTRAL VALLEYS...

CITY           SKY/WX    TMP DP  RH WIND       PRES   REMARKS
GRAND JUNCTION SUNNY     79  51  37 SE7       30.19S
MONTROSE       SUNNY     79  50  36 CALM      30.27S
EAGLE          MOSUNNY   66  50  55 CALM      30.36F
RIFLE          SUNNY     75  50  41 VRB3      30.25S
DELTA          SUNNY     78  52  40 E5        30.23F
NUCLA          SUNNY     81  45  28 CALM      30.31F
$$

COZ017>023-064>068-261700-
...SOUTHWEST COLORADO...

CITY           SKY/WX    TMP DP  RH WIND       PRES   REMARKS
DURANGO        MOSUNNY   77  44  30 CALM      30.32F
CORTEZ         SUNNY     80  50  34 VRB3      30.28S
PAGOSA SPRINGS MOSUNNY   75  42  30 CALM      30.41S
TELLURIDE      MOSUNNY   70  45  40 W3        30.52F
WOLF CREEK PAS NOT AVBL
$$

COZ009-010-012-014-032>034-037-058>063-261700-
...CENTRAL COLORADO...

CITY           SKY/WX    TMP DP  RH WIND       PRES   REMARKS
ASPEN          MOSUNNY   68  49  50 NW6       30.40S
BUENA VISTA    SUNNY     69  45  41 N3        30.42S
COPPER MTN     PTSUNNY   61  37  41 SW8       30.74R
BERTHOUD PASS  PTSUNNY   52  37  58 W10       30.78S
COTTONWOOD PAS MOSUNNY   68  45  42 CALM      30.56S
GUNNISON       MOSUNNY   61  48  63 CALM      30.47F
KREMMLING      MOSUNNY   63  48  59 CALM      30.41S
LEADVILLE      PTSUNNY   60  46  59 VRB3      30.56S
MONARCH PASS   SUNNY     55  41  58 W10G20    30.84S
SALIDA         SUNNY    N/A N/A N/A W5        30.46S
SUNLIGHT       PTSUNNY   63  46  55 CALM      30.66R
WILKERSON PASS NOT AVBL
$$

COZ069>075-261700-
...SAN LUIS VALLEY/SANGRE DE CRISTO MOUNTAINS...

CITY           SKY/WX    TMP DP  RH WIND       PRES   REMARKS
ALAMOSA        SUNNY     70  51  51 CALM      30.40S
LA VETA PASS   SUNNY     68  43  40 SW3       30.60R
SAGUACHE       MOSUNNY   68  50  52 CALM      30.43S
$$

COZ035-036-038>040-261700-
...NORTHERN COLORADO FRONT RANGE...

CITY           SKY/WX    TMP DP  RH WIND       PRES   REMARKS
DENVER INTL AP PTSUNNY   82  47  29 NE12      30.19R
DMNS CITY PARK   N/A     83  53  35 E3        30.18R
AURORA         PTSUNNY   82  51  34 NE10      30.21R
FRONT RANGE AP NOT AVBL
ERIE MUNI ARPT PTSUNNY   72  57  59 W9        30.18R
BOULDER MUN AP PTSUNNY   73  52  46 NW6       30.20R
CENTENNIAL     PTSUNNY   83  48  29 VRB3      30.21R
BROOMFIELD     PTSUNNY   73  54  49 N8        30.22R
FORT COLLINS   CLOUDY    72  54  53 SW6       30.19R
LONGMONT       CLOUDY    75  55  49 N5        30.18F
$$

COZ041-046-047-076>085-087-088-261700-
...PIKES PEAK/PALMER DIVIDE AND SOUTHERN FOOTHILLS...

CITY           SKY/WX    TMP DP  RH WIND       PRES   REMARKS
COLO. SPRINGS  MOSUNNY   87  43  21 NE10      30.24S
A. F. ACADEMY  MOSUNNY   83  44  25 VRB3      30.27R
ELLICOTT       SUNNY     87  43  21 NE10      30.22R
FALCON         SUNNY     82  43  24 NE10      30.31R
FORT CARSON    SUNNY     86  49  27 N10       30.21R
LIMON          SUNNY     86  45  23 N15       30.17S
MONUMENT HILL  NOT AVBL
TRINIDAD       SUNNY     86  49  27 NW6       30.19S
$$

COZ042>045-048>051-090-091-261700-
...NORTHEAST COLORADO...

CITY           SKY/WX    TMP DP  RH WIND       PRES   REMARKS
GREELEY ARPT   CLOUDY    72  54  53 N6        30.15S
AKRON          MOSUNNY   81  51  35 N15G23    30.12R
BURLINGTON     SUNNY     89  55  31 N15       30.06S
WRAY             N/A     87  51  29 NW15      30.04R
STERLING       MOSUNNY   82  54  36 N13       30.07R
HOLYOKE        SUNNY     84  54  34 N13       30.03S
FORT MORGAN    MOSUNNY   85  42  21 N17       30.12S
$$

COZ086-089-092>099-261700-
...SOUTHEAST COLORADO...

CITY           SKY/WX    TMP DP  RH WIND       PRES   REMARKS
PUEBLO         SUNNY     84  55  36 NW6       30.11S
LA JUNTA       SUNNY     82  58  43 SW7       30.08R
LAMAR          SUNNY     86  58  38 W9        30.02S
SPRINGFIELD      N/A     88  56  33 NW5       30.07S
$$


USA.gov is the U.S. government's official web portal to all federal, state and local government web resources and services.